Weather History for KBBB - January, 2013

Change the Weather History Date:

Thursday, January 3, 2013

  Actual Average Record
Temperature  
Mean Temperature 8 °F -  
Max Temperature 17 °F 19 °F 45 °F (1962)
Min Temperature 0 °F 1 °F -19 °F (1968)
Degree Days  
Heating Degree Days 56    
Moisture  
Dew Point 5 °F    
Average Humidity 84    
Maximum Humidity 92    
Minimum Humidity 73    
Precipitation  
Precipitation 0.00 in - - ()
Sea Level Pressure  
Sea Level Pressure 30.19 in    
Wind  
Wind Speed 12 mph (West)    
Max Wind Speed 22 mph    
Max Gust Speed 28 mph    
Visibility 10 miles    
Events Snow    
Averages and records for this station are not official NWS values.
T = Trace of Precipitation, MM = Missing Value Source: NWS Daily Summary

Daily Weather History Graph

Daily Weather History Graph

Search for Another Location

Airport or City:

Trip Planner

Search our weather history database for the weather conditions in past years. The results will help you decide how hot, cold, wet, or windy it might be!

Date:

Astronomy

Jan. 03, 2013 Rise Set
Actual Time 8:02 AM CST 4:52 PM CST
Civil Twilight 7:28 AM CST 5:26 PM CST
Nautical Twilight 6:51 AM CST 6:03 PM CST
Astronomical Twilight 6:15 AM CST 6:39 PM CST
Moon 11:50 PM CST (1/3) 10:55 AM CST (1/3)
Length of Visible Light 9h 58m
Length of Day
8h 50m
Waning Gibbous, 65% of the Moon is Illuminated
Jan 3
Waning Gibbous
Jan 4
Last Quarter
Jan 11
New
Jan 18
First Quarter
Jan 26
Full

Hourly Weather History & Observations

Time (CST) Temp. Windchill Dew Point Humidity Pressure Visibility Wind Dir Wind Speed Gust Speed Precip Events Conditions
12:01 AM 8.6 °F -11.4 °F 3.2 °F 79% 30.17 in 7.0 mi NNW 21.9 mph 26.5 mph N/A   Overcast
12:41 AM 6.8 °F -13.8 °F 3.2 °F 85% 30.17 in 10.0 mi NNW 21.9 mph 27.6 mph N/A   Overcast
1:01 AM 6.8 °F -13.4 °F 3.2 °F 85% 30.17 in 10.0 mi NNW 20.7 mph 26.5 mph N/A   Overcast
1:41 AM 6.8 °F -12.9 °F 1.4 °F 79% 30.18 in 10.0 mi NNW 19.6 mph - N/A   Overcast
2:41 AM 5.0 °F -13.6 °F 1.4 °F 85% 30.20 in 10.0 mi NNW 16.1 mph - N/A   Overcast
3:21 AM 3.2 °F -15.9 °F -0.4 °F 85% 30.21 in 10.0 mi NNW 16.1 mph - N/A   Mostly Cloudy
4:39 AM 3.2 °F -15.9 °F 1.4 °F 92% 30.23 in 7.0 mi North 16.1 mph 23.0 mph N/A   Overcast
4:53 AM 3.2 °F -14.6 °F 1.4 °F 92% 30.24 in 10.0 mi North 13.8 mph 18.4 mph N/A   Overcast
5:12 AM 3.2 °F -16.5 °F -0.4 °F 85% 30.24 in 7.0 mi North 17.3 mph - N/A   Overcast
5:32 AM 3.2 °F -15.3 °F -0.4 °F 85% 30.24 in 10.0 mi North 15.0 mph - N/A   Overcast
5:53 AM 3.2 °F -13.9 °F -0.4 °F 85% 30.25 in 10.0 mi North 12.7 mph - N/A   Mostly Cloudy
6:12 AM 1.4 °F -16.1 °F -0.4 °F 92% 30.25 in 10.0 mi North 12.7 mph - N/A   Clear
6:33 AM 1.4 °F -13.5 °F -2.2 °F 85% 30.25 in 10.0 mi North 9.2 mph - N/A   Clear
6:52 AM 1.4 °F -12.5 °F -2.2 °F 85% 30.26 in 10.0 mi North 8.1 mph - N/A   Clear
7:12 AM 1.4 °F -12.5 °F -2.2 °F 85% 30.26 in 10.0 mi NNW 8.1 mph - N/A   Clear
7:33 AM -0.4 °F -12.0 °F -4.0 °F 85% 30.26 in 10.0 mi NNW 5.8 mph - N/A   Clear
7:52 AM -0.4 °F -12.0 °F -4.0 °F 85% 30.26 in 10.0 mi NNW 5.8 mph - N/A   Clear
8:12 AM -0.4 °F -13.4 °F -4.0 °F 85% 30.26 in 10.0 mi NNW 6.9 mph - N/A   Clear
8:33 AM -0.4 °F -13.4 °F -5.8 °F 78% 30.26 in 10.0 mi NW 6.9 mph - N/A   Clear
8:52 AM -0.4 °F -13.4 °F -4.0 °F 85% 30.27 in 10.0 mi NNW 6.9 mph - N/A   Clear
9:12 AM 1.4 °F -8.3 °F -2.2 °F 85% 30.28 in 10.0 mi NNW 4.6 mph - N/A   Clear
9:33 AM 1.4 °F -9.9 °F -2.2 °F 85% 30.28 in 10.0 mi NW 5.8 mph - N/A   Clear
9:52 AM 3.2 °F -9.1 °F -2.2 °F 78% 30.28 in 10.0 mi NNW 6.9 mph - N/A   Mostly Cloudy
10:12 AM 3.2 °F -6.2 °F -0.4 °F 85% 30.28 in 10.0 mi NNW 4.6 mph - N/A Snow Light Snow
10:33 AM 5.0 °F -4.1 °F -0.4 °F 78% 30.28 in 10.0 mi NNW 4.6 mph - N/A Snow Light Snow
10:53 AM 6.8 °F - 1.4 °F 79% 30.28 in 10.0 mi Calm Calm - N/A   Mostly Cloudy
11:12 AM 6.8 °F -0.1 °F 1.4 °F 79% 30.28 in 10.0 mi West 3.5 mph - N/A   Mostly Cloudy
11:33 AM 8.6 °F -1.3 °F 3.2 °F 79% 30.27 in 10.0 mi West 5.8 mph - N/A   Clear
11:53 AM 8.6 °F -1.3 °F 3.2 °F 79% 30.26 in 10.0 mi WSW 5.8 mph - N/A   Scattered Clouds
12:12 PM 8.6 °F -1.3 °F 3.2 °F 79% 30.25 in 10.0 mi WSW 5.8 mph - N/A   Scattered Clouds
12:33 PM 10.4 °F -0.4 °F 3.2 °F 73% 30.24 in 10.0 mi WSW 6.9 mph - N/A   Clear
12:52 PM 10.4 °F 0.8 °F 5.0 °F 79% 30.23 in 10.0 mi WSW 5.8 mph - N/A   Scattered Clouds
1:33 PM 12.2 °F 4.3 °F 6.8 °F 79% 30.22 in 10.0 mi West 4.6 mph - N/A   Mostly Cloudy
1:52 PM 12.2 °F 6.1 °F 6.8 °F 79% 30.22 in 10.0 mi WSW 3.5 mph - N/A   Overcast
2:12 PM 12.2 °F 2.9 °F 8.6 °F 85% 30.21 in 10.0 mi SSW 5.8 mph - N/A   Scattered Clouds
2:33 PM 14.0 °F 3.9 °F 8.6 °F 79% 30.21 in 10.0 mi SW 6.9 mph - N/A   Clear
2:52 PM 15.8 °F 7.2 °F 8.6 °F 73% 30.20 in 10.0 mi SW 5.8 mph - N/A   Clear
3:12 PM 15.8 °F 7.2 °F 10.4 °F 79% 30.20 in 10.0 mi SW 5.8 mph - N/A   Clear
3:33 PM 15.8 °F 6.1 °F 10.4 °F 79% 30.20 in 10.0 mi SW 6.9 mph - N/A   Clear
3:52 PM 15.8 °F 6.1 °F 10.4 °F 79% 30.20 in 10.0 mi SW 6.9 mph - N/A   Clear
4:12 PM 15.8 °F 7.2 °F 10.4 °F 79% 30.19 in 10.0 mi SW 5.8 mph - N/A   Clear
4:33 PM 12.2 °F 0.7 °F 8.6 °F 85% 30.19 in 10.0 mi SSW 8.1 mph - N/A   Clear
4:52 PM 12.2 °F 1.7 °F 8.6 °F 85% 30.19 in 10.0 mi SW 6.9 mph - N/A   Clear
5:12 PM 14.0 °F 2.9 °F 10.4 °F 86% 30.18 in 10.0 mi WSW 8.1 mph - N/A   Clear
5:33 PM 14.0 °F 3.9 °F 10.4 °F 86% 30.17 in 10.0 mi WSW 6.9 mph - N/A   Clear
5:52 PM 12.2 °F 2.9 °F 10.4 °F 92% 30.16 in 10.0 mi WSW 5.8 mph - N/A   Clear
6:13 PM 12.2 °F 0.7 °F 10.4 °F 92% 30.15 in 10.0 mi WSW 8.1 mph - N/A   Clear
6:33 PM 12.2 °F 0.7 °F 10.4 °F 92% 30.13 in 10.0 mi WSW 8.1 mph - N/A   Clear
6:52 PM 12.2 °F 0.7 °F 10.4 °F 92% 30.13 in 10.0 mi WSW 8.1 mph - N/A   Clear
7:13 PM 10.4 °F -0.4 °F 8.6 °F 92% 30.12 in 10.0 mi WSW 6.9 mph - N/A   Clear
7:33 PM 12.2 °F 0.7 °F 10.4 °F 92% 30.12 in 10.0 mi WSW 8.1 mph - N/A   Clear
7:52 PM 10.4 °F -0.4 °F 6.8 °F 85% 30.11 in 10.0 mi WSW 6.9 mph - N/A   Clear
8:13 PM 10.4 °F -0.4 °F 8.6 °F 92% 30.10 in 10.0 mi SW 6.9 mph - N/A   Clear
8:33 PM 12.2 °F 1.7 °F 8.6 °F 85% 30.09 in 10.0 mi SW 6.9 mph - N/A   Clear
8:52 PM 12.2 °F 0.7 °F 8.6 °F 85% 30.07 in 10.0 mi SW 8.1 mph - N/A   Clear
9:13 PM 15.8 °F 7.2 °F 10.4 °F 79% 30.07 in 10.0 mi WSW 5.8 mph - N/A   Clear
9:32 PM 14.0 °F 3.9 °F 10.4 °F 86% 30.07 in 10.0 mi WSW 6.9 mph - N/A   Clear
9:52 PM 12.2 °F -0.2 °F 8.6 °F 85% 30.06 in 10.0 mi WSW 9.2 mph - N/A   Clear
10:13 PM 15.8 °F 5.1 °F 10.4 °F 79% 30.05 in 10.0 mi WSW 8.1 mph - N/A   Clear
10:32 PM 15.8 °F 4.2 °F 12.2 °F 86% 30.04 in 10.0 mi WSW 9.2 mph - N/A   Clear
10:53 PM 17.6 °F 5.7 °F 12.2 °F 79% 30.03 in 10.0 mi WSW 10.4 mph - N/A   Clear
11:13 PM 17.6 °F 5.7 °F 12.2 °F 79% 30.03 in 10.0 mi WSW 10.4 mph - N/A   Clear
11:32 PM 17.6 °F 7.3 °F 14.0 °F 86% 30.02 in 10.0 mi West 8.1 mph - N/A   Clear
11:53 PM 17.6 °F 7.3 °F 12.2 °F 79% 30.02 in 10.0 mi WSW 8.1 mph - N/A   Clear